{"data":{"norad_id":56701,"intl_designator":"2023-067P","name":"STARLINK-30125","alt_names":[],"object_type":"PAYLOAD","status":"ACTIVE","operator":null,"country":"US","launch_date":"2023-05-19","launch_site_code":"AFETR","launch_vehicle":null,"mission":null,"orbit_class":"UNKNOWN","rcs_meters":null,"size_class":null,"mass_kg":null,"dimensions":null,"purposes":["comms"],"wikipedia_slug":null,"has_3d_model":false,"image_url":null,"decayed_at":null,"tle_current":{"epoch":"2026-05-25T05:11:46.262688Z","epoch_age_seconds":52475,"freshness":"FRESH","line1":"1 56701U 23067P   26145.21650767 -.00001727  00000+0 -53276-4 0  9994","line2":"2 56701  43.0022 198.8993 0001634 260.8755  99.1912 15.27565960167401","mean_motion":15.2756596,"eccentricity":0.0001634,"inclination_deg":43.0022,"raan_deg":198.8993,"arg_perigee_deg":260.8755,"mean_anomaly_deg":99.1912,"bstar":-5.3276e-5,"rev_number":16740,"period_min":94.267615128056,"perigee_km":481.9700124949,"apogee_km":484.21226185013,"semimajor_km":6861.2281371725,"source":"CELESTRAK","updated_at":"2026-05-25T13:38:18.121372Z"}}}